Tracking 30696 objects as of 16-Jun-2025
HD Live streaming from Space Station
objects crossing your sky now

COSMOS 970 DEB

Track COSMOS 970 DEB now!
10-day predictions


NORAD ID: 15559
Int'l Code: 1977-121BM
Perigee: 930.9 km
Apogee: 1,117.2 km
Inclination: 65.6 °
Period: 105.5 minutes
Semi major axis: 7395 km
RCS: 0.0103 m2 (small)
Launch date: December 21, 1977
Source: Commonwealth of Independent States (former USSR) (CIS)
Launch site: TYURATAM MISSILE AND SPACE COMPLEX (TTMTR)

Note: This is SATELLITE DEBRIS
Your satellite tracking list
Your tracking list is empty




NASA's NSSDC Master Catalog

Two Line Element Set (TLE):
1 15559U 77121BM  25166.67062590  .00000078  00000-0  18435-3 0  9997
2 15559  65.5803  42.2513 0125961 191.9350 203.6247 13.65181326 10712
Source of the keplerian elements: AFSPC